Time,TemperatureF,DewpointF,PressureIn,WindDirection,WindDirectionDegrees,WindSpeedMPH,WindSpeedGustMPH,Humidity,HourlyPrecipIn,Conditions,Clouds,dailyrainin,SoftwareType,DateUTC
2013-01-25 00:03:00,58.1,32.5,30.19,ENE,68,1.8,2.9,38,0.00,,,0.00,WUHU216HW,2013-01-25 07:03:00,
2013-01-25 00:08:00,58.3,33.4,30.19,East,90,1.1,2.9,39,0.00,,,0.00,WUHU216HW,2013-01-25 07:08:00,
2013-01-25 00:13:00,58.5,34.3,30.19,NW,315,0.9,4.0,40,0.00,,,0.00,WUHU216HW,2013-01-25 07:13:00,
2013-01-25 00:18:00,58.7,33.8,30.19,East,90,0.7,4.0,39,0.00,,,0.00,WUHU216HW,2013-01-25 07:18:00,
2013-01-25 00:23:00,58.3,33.4,30.19,SSW,203,0.4,2.5,39,0.00,,,0.00,WUHU216HW,2013-01-25 07:23:00,
2013-01-25 00:28:00,58.0,33.0,30.19,NNW,338,0.0,1.6,39,0.00,,,0.00,WUHU216HW,2013-01-25 07:28:00,
2013-01-25 00:33:00,57.8,33.6,30.19,NNW,338,1.8,2.5,40,0.00,,,0.00,WUHU216HW,2013-01-25 07:33:00,
2013-01-25 00:38:00,58.7,37.9,30.18,WNW,293,5.8,5.8,46,0.00,,,0.00,WUHU216HW,2013-01-25 07:38:00,
2013-01-25 00:43:00,60.3,38.8,30.18,West,270,4.9,9.2,45,0.00,,,0.00,WUHU216HW,2013-01-25 07:43:00,
2013-01-25 00:48:00,61.6,39.9,30.18,WNW,293,4.3,9.2,45,0.00,,,0.00,WUHU216HW,2013-01-25 07:48:00,
2013-01-25 00:53:00,61.9,39.6,30.18,WNW,293,4.0,8.5,44,0.00,,,0.00,WUHU216HW,2013-01-25 07:53:00,
2013-01-25 00:58:00,61.7,39.5,30.18,West,270,2.2,7.4,44,0.00,,,0.00,WUHU216HW,2013-01-25 07:58:00,
2013-01-25 01:03:00,61.4,38.6,30.18,NNE,23,1.3,4.0,43,0.00,,,0.00,WUHU216HW,2013-01-25 08:03:00,
2013-01-25 01:08:00,60.8,37.5,30.18,NNE,23,0.0,2.5,42,0.00,,,0.00,WUHU216HW,2013-01-25 08:08:00,
2013-01-25 01:13:00,60.3,37.0,30.18,NNE,23,0.4,1.3,42,0.00,,,0.00,WUHU216HW,2013-01-25 08:13:00,
2013-01-25 01:18:00,59.8,37.1,30.18,ENE,68,0.9,2.5,43,0.00,,,0.00,WUHU216HW,2013-01-25 08:18:00,
2013-01-25 01:23:00,59.4,37.4,30.18,ENE,68,1.8,2.5,44,0.00,,,0.00,WUHU216HW,2013-01-25 08:23:00,
2013-01-25 01:28:00,59.2,37.8,30.18,NE,45,1.8,2.5,45,0.00,,,0.00,WUHU216HW,2013-01-25 08:28:00,
2013-01-25 01:33:00,58.9,37.4,30.18,NNE,23,1.8,3.4,45,0.00,,,0.00,WUHU216HW,2013-01-25 08:33:00,
2013-01-25 01:38:00,58.7,37.3,30.18,NE,45,1.1,3.4,45,0.00,,,0.00,WUHU216HW,2013-01-25 08:38:00,
2013-01-25 01:43:00,58.7,37.3,30.19,NNW,338,0.4,2.5,45,0.00,,,0.00,WUHU216HW,2013-01-25 08:43:00,
2013-01-25 01:48:00,58.5,37.2,30.18,NW,315,1.1,1.8,45,0.00,,,0.00,WUHU216HW,2013-01-25 08:48:00,
2013-01-25 01:53:00,58.1,36.3,30.18,SE,135,1.6,1.8,44,0.00,,,0.00,WUHU216HW,2013-01-25 08:53:00,
2013-01-25 01:58:00,58.0,36.6,30.17,NNW,338,0.0,1.8,45,0.00,,,0.00,WUHU216HW,2013-01-25 08:58:00,
2013-01-25 02:03:00,57.6,35.7,30.18,WNW,293,0.0,1.8,44,0.00,,,0.00,WUHU216HW,2013-01-25 09:03:00,
2013-01-25 02:08:00,57.2,36.0,30.18,NW,315,0.0,1.1,45,0.00,,,0.00,WUHU216HW,2013-01-25 09:08:00,
2013-01-25 02:13:00,56.9,36.3,30.18,North,0,0.4,0.4,46,0.00,,,0.00,WUHU216HW,2013-01-25 09:13:00,
2013-01-25 02:18:00,56.9,35.6,30.18,NNE,23,0.0,0.4,45,0.00,,,0.00,WUHU216HW,2013-01-25 09:18:00,
2013-01-25 02:23:00,56.5,36.5,30.18,NNW,338,0.4,1.1,47,0.00,,,0.00,WUHU216HW,2013-01-25 09:23:00,
2013-01-25 02:28:00,56.5,36.5,30.18,NW,315,0.4,1.3,47,0.00,,,0.00,WUHU216HW,2013-01-25 09:28:00,
2013-01-25 02:33:00,56.3,36.3,30.17,North,0,0.4,1.3,47,0.00,,,0.00,WUHU216HW,2013-01-25 09:33:00,
2013-01-25 02:38:00,56.3,36.3,30.18,NNW,338,0.0,1.3,47,0.00,,,0.00,WUHU216HW,2013-01-25 09:38:00,
2013-01-25 02:43:00,56.2,36.1,30.18,NNW,338,1.1,1.1,47,0.00,,,0.00,WUHU216HW,2013-01-25 09:43:00,
2013-01-25 02:48:00,56.2,35.6,30.17,WNW,293,0.0,1.1,46,0.00,,,0.00,WUHU216HW,2013-01-25 09:48:00,
2013-01-25 02:53:00,55.8,35.2,30.17,WSW,248,0.0,1.3,46,0.00,,,0.00,WUHU216HW,2013-01-25 09:53:00,
2013-01-25 02:58:00,55.8,35.7,30.18,NNW,338,0.4,1.3,47,0.00,,,0.00,WUHU216HW,2013-01-25 09:58:00,
2013-01-25 03:03:00,55.4,35.4,30.17,West,270,0.0,1.1,47,0.00,,,0.00,WUHU216HW,2013-01-25 10:03:00,
2013-01-25 03:08:00,55.3,35.8,30.17,NE,45,2.0,3.4,48,0.00,,,0.00,WUHU216HW,2013-01-25 10:08:00,
2013-01-25 03:13:00,55.3,35.8,30.17,NE,45,0.4,3.4,48,0.00,,,0.00,WUHU216HW,2013-01-25 10:13:00,
2013-01-25 03:18:00,55.3,36.4,30.16,NNW,338,0.0,1.3,49,0.00,,,0.00,WUHU216HW,2013-01-25 10:18:00,
2013-01-25 03:23:00,55.3,36.4,30.16,North,0,0.2,1.1,49,0.00,,,0.00,WUHU216HW,2013-01-25 10:23:00,
2013-01-25 03:28:00,55.1,36.2,30.16,SSW,203,1.1,3.1,49,0.00,,,0.00,WUHU216HW,2013-01-25 10:28:00,
2013-01-25 03:33:00,55.1,36.7,30.16,NE,45,2.7,3.1,50,0.00,,,0.00,WUHU216HW,2013-01-25 10:33:00,
2013-01-25 03:38:00,55.1,36.7,30.15,ESE,113,0.7,2.7,50,0.00,,,0.00,WUHU216HW,2013-01-25 10:38:00,
2013-01-25 03:43:00,55.3,36.9,30.15,ENE,68,1.1,2.7,50,0.00,,,0.00,WUHU216HW,2013-01-25 10:43:00,
2013-01-25 03:48:00,55.3,36.9,30.15,NE,45,0.4,1.6,50,0.00,,,0.00,WUHU216HW,2013-01-25 10:48:00,
2013-01-25 03:53:00,55.3,36.9,30.15,NNE,23,1.6,2.5,50,0.00,,,0.00,WUHU216HW,2013-01-25 10:53:00,
2013-01-25 03:58:00,55.4,37.1,30.15,NNE,23,0.0,2.5,50,0.00,,,0.00,WUHU216HW,2013-01-25 10:58:00,
2013-01-25 04:03:00,55.4,37.1,30.15,North,0,0.7,2.2,50,0.00,,,0.00,WUHU216HW,2013-01-25 11:03:00,
2013-01-25 04:08:00,55.4,37.1,30.15,NNE,23,0.0,1.6,50,0.00,,,0.00,WUHU216HW,2013-01-25 11:08:00,
2013-01-25 04:13:00,55.4,37.1,30.15,North,0,1.1,1.3,50,0.00,,,0.00,WUHU216HW,2013-01-25 11:13:00,
2013-01-25 04:18:00,55.3,36.9,30.15,North,0,0.4,1.3,50,0.00,,,0.00,WUHU216HW,2013-01-25 11:18:00,
2013-01-25 04:23:00,55.3,37.9,30.15,North,0,1.1,1.3,52,0.00,,,0.00,WUHU216HW,2013-01-25 11:23:00,
2013-01-25 04:28:00,55.4,37.5,30.15,North,0,0.2,2.2,51,0.00,,,0.00,WUHU216HW,2013-01-25 11:28:00,
2013-01-25 04:33:00,55.4,37.1,30.15,NNE,23,0.7,2.2,50,0.00,,,0.00,WUHU216HW,2013-01-25 11:33:00,
2013-01-25 04:38:00,55.1,36.7,30.15,ENE,68,0.7,1.1,50,0.00,,,0.00,WUHU216HW,2013-01-25 11:38:00,
2013-01-25 04:43:00,54.9,36.6,30.15,NNE,23,0.9,0.9,50,0.00,,,0.00,WUHU216HW,2013-01-25 11:43:00,
2013-01-25 04:48:00,54.5,36.3,30.15,NNE,23,1.1,1.1,50,0.00,,,0.00,WUHU216HW,2013-01-25 11:48:00,
2013-01-25 04:53:00,54.2,35.4,30.15,NNE,23,0.0,1.1,49,0.00,,,0.00,WUHU216HW,2013-01-25 11:53:00,
2013-01-25 04:58:00,53.8,35.1,30.15,NNE,23,0.0,0.7,49,0.00,,,0.00,WUHU216HW,2013-01-25 11:58:00,
2013-01-25 05:03:00,53.5,35.3,30.15,NNE,23,0.0,0.0,50,0.00,,,0.00,WUHU216HW,2013-01-25 12:03:00,
2013-01-25 05:08:00,52.9,34.8,30.15,North,0,0.0,0.0,50,0.00,,,0.00,WUHU216HW,2013-01-25 12:08:00,
2013-01-25 05:13:00,52.7,35.1,30.15,WSW,248,1.1,1.8,51,0.00,,,0.00,WUHU216HW,2013-01-25 12:13:00,
2013-01-25 05:18:00,52.2,34.7,30.15,West,270,0.0,2.2,51,0.00,,,0.00,WUHU216HW,2013-01-25 12:18:00,
2013-01-25 05:23:00,51.8,35.2,30.15,WNW,293,1.1,2.2,53,0.00,,,0.00,WUHU216HW,2013-01-25 12:23:00,
2013-01-25 05:28:00,51.7,35.0,30.15,NW,315,0.4,2.0,53,0.00,,,0.00,WUHU216HW,2013-01-25 12:28:00,
2013-01-25 05:33:00,51.5,34.8,30.15,WNW,293,0.7,2.0,53,0.00,,,0.00,WUHU216HW,2013-01-25 12:33:00,
2013-01-25 05:38:00,51.3,34.8,30.16,WSW,248,2.0,2.0,53,0.00,,,0.00,WUHU216HW,2013-01-25 12:38:00,
2013-01-25 05:43:00,51.1,35.0,30.16,SE,135,1.1,2.0,54,0.00,,,0.00,WUHU216HW,2013-01-25 12:43:00,
2013-01-25 05:48:00,51.1,35.0,30.16,SSW,203,0.2,2.0,54,0.00,,,0.00,WUHU216HW,2013-01-25 12:48:00,
2013-01-25 05:53:00,50.9,35.3,30.16,ESE,113,0.4,1.3,55,0.00,,,0.00,WUHU216HW,2013-01-25 12:53:00,
2013-01-25 05:58:00,50.8,34.7,30.16,SSE,158,0.2,1.3,54,0.00,,,0.00,WUHU216HW,2013-01-25 12:58:00,
2013-01-25 06:03:00,50.8,34.7,30.16,SSE,158,0.0,1.1,54,0.00,,,0.00,WUHU216HW,2013-01-25 13:03:00,
2013-01-25 06:08:00,50.4,34.8,30.17,ESE,113,1.1,1.1,55,0.00,,,0.00,WUHU216HW,2013-01-25 13:08:00,
2013-01-25 06:13:00,50.4,35.3,30.17,ESE,113,0.9,2.2,56,0.00,,,0.00,WUHU216HW,2013-01-25 13:13:00,
2013-01-25 06:18:00,50.2,35.1,30.17,East,90,1.8,2.2,56,0.00,,,0.00,WUHU216HW,2013-01-25 13:18:00,
2013-01-25 06:23:00,50.0,34.5,30.18,East,90,0.0,1.8,55,0.00,,,0.00,WUHU216HW,2013-01-25 13:23:00,
2013-01-25 06:28:00,49.7,34.1,30.18,SSE,158,0.0,1.8,55,0.00,,,0.00,WUHU216HW,2013-01-25 13:28:00,
2013-01-25 06:33:00,49.3,33.8,30.18,SE,135,1.1,1.8,55,0.00,,,0.00,WUHU216HW,2013-01-25 13:33:00,
2013-01-25 06:38:00,49.1,34.1,30.18,East,90,0.2,1.8,56,0.00,,,0.00,WUHU216HW,2013-01-25 13:38:00,
2013-01-25 06:43:00,48.8,33.3,30.18,SE,135,0.0,1.8,55,0.00,,,0.00,WUHU216HW,2013-01-25 13:43:00,
2013-01-25 06:48:00,48.6,33.6,30.18,ESE,113,0.0,1.8,56,0.00,,,0.00,WUHU216HW,2013-01-25 13:48:00,
2013-01-25 06:53:00,48.4,33.8,30.18,North,0,0.4,0.9,57,0.00,,,0.00,WUHU216HW,2013-01-25 13:53:00,
2013-01-25 06:58:00,48.2,34.2,30.19,NNE,23,0.0,1.3,58,0.00,,,0.00,WUHU216HW,2013-01-25 13:58:00,
2013-01-25 07:03:00,48.1,34.0,30.19,NNE,23,1.3,1.3,58,0.00,,,0.00,WUHU216HW,2013-01-25 14:03:00,
2013-01-25 07:08:00,48.1,34.0,30.19,NW,315,0.0,1.3,58,0.00,,,0.00,WUHU216HW,2013-01-25 14:08:00,
2013-01-25 07:13:00,48.1,33.5,30.20,West,270,0.0,1.3,57,0.00,,,0.00,WUHU216HW,2013-01-25 14:13:00,
2013-01-25 07:18:00,48.1,34.0,30.20,NE,45,0.7,1.3,58,0.00,,,0.00,WUHU216HW,2013-01-25 14:18:00,
2013-01-25 07:23:00,48.1,33.5,30.20,ENE,68,0.0,1.1,57,0.00,,,0.00,WUHU216HW,2013-01-25 14:23:00,
2013-01-25 07:28:00,48.2,33.7,30.20,East,90,0.2,0.7,57,0.00,,,0.00,WUHU216HW,2013-01-25 14:28:00,
2013-01-25 07:33:00,48.2,33.7,30.20,East,90,0.0,0.2,57,0.00,,,0.00,WUHU216HW,2013-01-25 14:33:00,
2013-01-25 07:38:00,48.4,33.8,30.20,East,90,0.0,0.2,57,0.00,,,0.00,WUHU216HW,2013-01-25 14:38:00,
2013-01-25 07:43:00,48.6,34.5,30.21,ENE,68,2.2,2.2,58,0.00,,,0.00,WUHU216HW,2013-01-25 14:43:00,
2013-01-25 07:48:00,49.0,34.4,30.20,ENE,68,0.9,2.5,57,0.00,,,0.00,WUHU216HW,2013-01-25 14:48:00,
2013-01-25 07:53:00,49.0,34.4,30.20,ENE,68,0.2,2.5,57,0.00,,,0.00,WUHU216HW,2013-01-25 14:53:00,
2013-01-25 07:58:00,49.3,34.8,30.21,NNE,23,0.4,1.8,57,0.00,,,0.00,WUHU216HW,2013-01-25 14:58:00,
2013-01-25 08:03:00,49.7,34.6,30.21,NE,45,1.1,1.8,56,0.00,,,0.00,WUHU216HW,2013-01-25 15:03:00,
2013-01-25 08:08:00,50.0,34.9,30.21,ENE,68,1.3,1.8,56,0.00,,,0.00,WUHU216HW,2013-01-25 15:08:00,
2013-01-25 08:13:00,50.4,34.8,30.22,ENE,68,1.6,2.2,55,0.00,,,0.00,WUHU216HW,2013-01-25 15:13:00,
2013-01-25 08:18:00,50.6,34.9,30.22,ENE,68,3.1,4.0,55,0.00,,,0.00,WUHU216HW,2013-01-25 15:18:00,
2013-01-25 08:23:00,50.6,34.5,30.22,ENE,68,1.6,4.0,54,0.00,,,0.00,WUHU216HW,2013-01-25 15:23:00,
2013-01-25 08:28:00,50.6,34.5,30.22,ENE,68,2.5,3.6,54,0.00,,,0.00,WUHU216HW,2013-01-25 15:28:00,
2013-01-25 08:33:00,50.8,34.7,30.22,ENE,68,1.8,3.8,54,0.00,,,0.00,WUHU216HW,2013-01-25 15:33:00,
2013-01-25 08:38:00,50.8,34.2,30.23,NNE,23,1.1,3.8,53,0.00,,,0.00,WUHU216HW,2013-01-25 15:38:00,
2013-01-25 08:43:00,51.1,34.1,30.23,ENE,68,0.9,2.7,52,0.00,,,0.00,WUHU216HW,2013-01-25 15:43:00,
2013-01-25 08:48:00,51.3,34.3,30.23,East,90,0.0,2.7,52,0.00,,,0.00,WUHU216HW,2013-01-25 15:48:00,
2013-01-25 08:53:00,51.7,34.1,30.23,WNW,293,1.3,1.8,51,0.00,,,0.00,WUHU216HW,2013-01-25 15:53:00,
2013-01-25 08:58:00,51.8,33.8,30.23,NNW,338,1.1,1.8,50,0.00,,,0.00,WUHU216HW,2013-01-25 15:58:00,
2013-01-25 09:03:00,51.8,33.8,30.23,WSW,248,1.1,1.8,50,0.00,,,0.00,WUHU216HW,2013-01-25 16:03:00,
2013-01-25 09:08:00,52.0,34.0,30.23,WSW,248,2.9,2.9,50,0.00,,,0.00,WUHU216HW,2013-01-25 16:08:00,
2013-01-25 09:13:00,52.2,34.2,30.24,WSW,248,1.6,3.1,50,0.00,,,0.00,WUHU216HW,2013-01-25 16:13:00,
2013-01-25 09:18:00,52.2,34.7,30.24,WSW,248,0.0,3.4,51,0.00,,,0.00,WUHU216HW,2013-01-25 16:18:00,
2013-01-25 09:23:00,52.6,34.9,30.24,WSW,248,0.0,3.4,51,0.00,,,0.00,WUHU216HW,2013-01-25 16:23:00,
2013-01-25 09:28:00,52.7,35.1,30.24,WSW,248,1.6,1.6,51,0.00,,,0.00,WUHU216HW,2013-01-25 16:28:00,
2013-01-25 09:33:00,52.9,34.8,30.25,SW,225,1.3,1.8,50,0.00,,,0.00,WUHU216HW,2013-01-25 16:33:00,
2013-01-25 09:38:00,53.1,35.5,30.25,South,180,2.5,2.9,51,0.00,,,0.00,WUHU216HW,2013-01-25 16:38:00,
2013-01-25 09:43:00,53.3,35.1,30.24,SSE,158,1.1,2.9,50,0.00,,,0.00,WUHU216HW,2013-01-25 16:43:00,
2013-01-25 09:48:00,53.5,34.7,30.24,SSE,158,2.0,2.5,49,0.00,,,0.00,WUHU216HW,2013-01-25 16:48:00,
2013-01-25 09:53:00,53.6,34.9,30.24,SSE,158,0.9,2.0,49,0.00,,,0.00,WUHU216HW,2013-01-25 16:53:00,
2013-01-25 09:58:00,54.0,34.7,30.24,SSE,158,0.7,2.0,48,0.00,,,0.00,WUHU216HW,2013-01-25 16:58:00,
2013-01-25 10:03:00,54.2,34.3,30.24,WSW,248,1.6,2.0,47,0.00,,,0.00,WUHU216HW,2013-01-25 17:03:00,
2013-01-25 10:08:00,54.4,34.5,30.24,SSW,203,0.2,1.6,47,0.00,,,0.00,WUHU216HW,2013-01-25 17:08:00,
2013-01-25 10:13:00,54.7,34.7,30.24,SSW,203,0.0,1.3,47,0.00,,,0.00,WUHU216HW,2013-01-25 17:13:00,
2013-01-25 10:18:00,54.9,34.9,30.25,SSW,203,0.2,0.7,47,0.00,,,0.00,WUHU216HW,2013-01-25 17:18:00,
2013-01-25 10:23:00,55.3,34.7,30.25,SSW,203,0.2,0.7,46,0.00,,,0.00,WUHU216HW,2013-01-25 17:23:00,
2013-01-25 10:28:00,55.4,34.8,30.25,SSW,203,0.0,0.7,46,0.00,,,0.00,WUHU216HW,2013-01-25 17:28:00,
2013-01-25 10:33:00,55.8,34.7,30.25,SSW,203,1.1,1.1,45,0.00,,,0.00,WUHU216HW,2013-01-25 17:33:00,
2013-01-25 10:38:00,56.2,35.0,30.25,SSE,158,0.0,1.1,45,0.00,,,0.00,WUHU216HW,2013-01-25 17:38:00,
2013-01-25 10:43:00,56.5,35.3,30.25,South,180,0.7,1.1,45,0.00,,,0.00,WUHU216HW,2013-01-25 17:43:00,
2013-01-25 10:48:00,56.5,34.7,30.25,SE,135,0.7,2.2,44,0.00,,,0.00,WUHU216HW,2013-01-25 17:48:00,
2013-01-25 10:53:00,56.9,34.5,30.25,East,90,1.6,2.2,43,0.00,,,0.00,WUHU216HW,2013-01-25 17:53:00,
2013-01-25 10:58:00,56.9,34.5,30.25,SE,135,3.4,3.4,43,0.00,,,0.00,WUHU216HW,2013-01-25 17:58:00,
2013-01-25 11:03:00,56.9,34.5,30.25,SSE,158,2.0,3.4,43,0.00,,,0.00,WUHU216HW,2013-01-25 18:03:00,
2013-01-25 11:08:00,56.9,34.5,30.25,SSW,203,3.4,5.1,43,0.00,,,0.00,WUHU216HW,2013-01-25 18:08:00,
2013-01-25 11:13:00,56.7,34.9,30.25,SE,135,2.5,5.4,44,0.00,,,0.00,WUHU216HW,2013-01-25 18:13:00,
2013-01-25 11:18:00,56.7,35.5,30.24,SSW,203,3.8,5.4,45,0.00,,,0.00,WUHU216HW,2013-01-25 18:18:00,
2013-01-25 11:23:00,56.7,35.5,30.24,SSE,158,1.8,5.4,45,0.00,,,0.00,WUHU216HW,2013-01-25 18:23:00,
2013-01-25 11:28:00,56.7,35.5,30.24,SSE,158,4.5,5.6,45,0.00,,,0.00,WUHU216HW,2013-01-25 18:28:00,
2013-01-25 11:33:00,56.7,35.5,30.24,South,180,5.1,5.6,45,0.00,,,0.00,WUHU216HW,2013-01-25 18:33:00,
2013-01-25 11:38:00,56.7,35.5,30.24,South,180,4.0,5.4,45,0.00,,,0.00,WUHU216HW,2013-01-25 18:38:00,
2013-01-25 11:43:00,56.7,35.5,30.24,SSE,158,1.1,5.1,45,0.00,,,0.00,WUHU216HW,2013-01-25 18:43:00,
2013-01-25 11:48:00,56.9,36.8,30.24,SSW,203,1.1,4.9,47,0.00,,,0.00,WUHU216HW,2013-01-25 18:48:00,
2013-01-25 11:53:00,57.1,37.5,30.23,SE,135,1.8,4.7,48,0.00,,,0.00,WUHU216HW,2013-01-25 18:53:00,
2013-01-25 11:58:00,57.2,37.7,30.23,SSE,158,1.8,4.3,48,0.00,,,0.00,WUHU216HW,2013-01-25 18:58:00,
2013-01-25 12:03:00,57.2,37.7,30.23,SSE,158,5.6,5.6,48,0.00,,,0.00,WUHU216HW,2013-01-25 19:03:00,
2013-01-25 12:08:00,57.2,37.7,30.22,SSW,203,3.1,5.6,48,0.00,,,0.00,WUHU216HW,2013-01-25 19:08:00,
2013-01-25 12:13:00,57.1,38.2,30.22,SSE,158,2.9,4.9,49,0.00,,,0.00,WUHU216HW,2013-01-25 19:13:00,
2013-01-25 12:18:00,57.2,38.4,30.22,SE,135,4.9,5.6,49,0.00,,,0.00,WUHU216HW,2013-01-25 19:18:00,
2013-01-25 12:23:00,57.1,38.7,30.21,ESE,113,2.5,5.6,50,0.00,,,0.00,WUHU216HW,2013-01-25 19:23:00,
2013-01-25 12:28:00,57.2,38.9,30.20,ESE,113,2.5,4.9,50,0.00,,,0.00,WUHU216HW,2013-01-25 19:28:00,
2013-01-25 12:33:00,57.6,38.6,30.20,SSE,158,1.1,4.3,49,0.00,,,0.00,WUHU216HW,2013-01-25 19:33:00,
2013-01-25 12:38:00,58.0,39.0,30.19,SSW,203,0.9,3.4,49,0.00,,,0.00,WUHU216HW,2013-01-25 19:38:00,
2013-01-25 12:43:00,58.5,38.3,30.19,SE,135,0.4,2.9,47,0.00,,,0.00,WUHU216HW,2013-01-25 19:43:00,
2013-01-25 12:48:00,59.2,38.3,30.19,ESE,113,1.1,2.0,46,0.00,,,0.00,WUHU216HW,2013-01-25 19:48:00,
2013-01-25 12:53:00,60.1,39.2,30.19,SSW,203,3.4,3.4,46,0.00,,,0.00,WUHU216HW,2013-01-25 19:53:00,
2013-01-25 12:58:00,60.5,38.3,30.19,SSW,203,1.8,3.4,44,0.00,,,0.00,WUHU216HW,2013-01-25 19:58:00,
2013-01-25 13:03:00,60.8,38.7,30.18,SSW,203,0.9,3.4,44,0.00,,,0.00,WUHU216HW,2013-01-25 20:03:00,
2013-01-25 13:08:00,61.6,38.7,30.18,SSW,203,1.1,2.5,43,0.00,,,0.00,WUHU216HW,2013-01-25 20:08:00,
2013-01-25 13:13:00,61.9,39.1,30.18,SSE,158,2.0,2.5,43,0.00,,,0.00,WUHU216HW,2013-01-25 20:13:00,
2013-01-25 13:18:00,62.6,39.2,30.18,SE,135,0.2,2.7,42,0.00,,,0.00,WUHU216HW,2013-01-25 20:18:00,
2013-01-25 13:23:00,63.5,38.8,30.18,West,270,1.6,2.7,40,0.00,,,0.00,WUHU216HW,2013-01-25 20:23:00,
2013-01-25 13:28:00,64.6,39.8,30.18,SE,135,1.8,2.2,40,0.00,,,0.00,WUHU216HW,2013-01-25 20:28:00,
2013-01-25 13:33:00,65.0,39.3,30.18,SE,135,0.4,2.2,39,0.00,,,0.00,WUHU216HW,2013-01-25 20:33:00,
2013-01-25 13:38:00,64.8,38.5,30.17,West,270,0.7,3.1,38,0.00,,,0.00,WUHU216HW,2013-01-25 20:38:00,
2013-01-25 13:43:00,64.1,38.5,30.17,SE,135,1.1,3.1,39,0.00,,,0.00,WUHU216HW,2013-01-25 20:43:00,
2013-01-25 13:48:00,64.1,38.5,30.16,East,90,2.2,2.2,39,0.00,,,0.00,WUHU216HW,2013-01-25 20:48:00,
2013-01-25 13:53:00,64.4,38.9,30.16,SSE,158,1.1,3.1,39,0.00,,,0.00,WUHU216HW,2013-01-25 20:53:00,
2013-01-25 13:58:00,65.0,39.3,30.16,NE,45,0.4,3.1,39,0.00,,,0.00,WUHU216HW,2013-01-25 20:58:00,
2013-01-25 14:03:00,65.5,39.9,30.16,SE,135,2.2,2.7,39,0.00,,,0.00,WUHU216HW,2013-01-25 21:03:00,
2013-01-25 14:08:00,65.5,39.2,30.16,SSE,158,2.5,2.7,38,0.00,,,0.00,WUHU216HW,2013-01-25 21:08:00,
2013-01-25 14:13:00,65.3,39.7,30.16,ENE,68,1.3,2.7,39,0.00,,,0.00,WUHU216HW,2013-01-25 21:13:00,
2013-01-25 14:18:00,65.2,39.5,30.16,WSW,248,0.4,2.5,39,0.00,,,0.00,WUHU216HW,2013-01-25 21:18:00,
2013-01-25 14:23:00,65.0,39.3,30.16,SSE,158,1.8,2.0,39,0.00,,,0.00,WUHU216HW,2013-01-25 21:23:00,
2013-01-25 14:28:00,65.0,39.3,30.16,West,270,0.0,3.1,39,0.00,,,0.00,WUHU216HW,2013-01-25 21:28:00,
2013-01-25 14:33:00,64.8,39.3,30.16,SE,135,1.1,3.1,39,0.00,,,0.00,WUHU216HW,2013-01-25 21:33:00,
2013-01-25 14:38:00,64.6,39.1,30.16,SE,135,3.1,3.1,39,0.00,,,0.00,WUHU216HW,2013-01-25 21:38:00,
2013-01-25 14:43:00,64.8,39.3,30.15,SSW,203,1.8,4.0,39,0.00,,,0.00,WUHU216HW,2013-01-25 21:43:00,
2013-01-25 14:48:00,64.8,40.0,30.15,SSE,158,3.6,4.0,40,0.00,,,0.00,WUHU216HW,2013-01-25 21:48:00,
2013-01-25 14:53:00,64.8,39.3,30.15,SSE,158,0.4,3.6,39,0.00,,,0.00,WUHU216HW,2013-01-25 21:53:00,
2013-01-25 14:58:00,65.0,39.3,30.14,South,180,0.4,3.6,39,0.00,,,0.00,WUHU216HW,2013-01-25 21:58:00,
2013-01-25 15:03:00,65.0,39.3,30.14,SSE,158,1.1,2.7,39,0.00,,,0.00,WUHU216HW,2013-01-25 22:03:00,
2013-01-25 15:08:00,65.2,39.5,30.14,SW,225,1.8,3.4,39,0.00,,,0.00,WUHU216HW,2013-01-25 22:08:00,
2013-01-25 15:13:00,65.0,39.3,30.14,SE,135,0.7,3.4,39,0.00,,,0.00,WUHU216HW,2013-01-25 22:13:00,
2013-01-25 15:18:00,65.0,39.3,30.14,ESE,113,0.4,2.7,39,0.00,,,0.00,WUHU216HW,2013-01-25 22:18:00,
2013-01-25 15:23:00,65.0,39.3,30.14,SSE,158,1.1,2.5,39,0.00,,,0.00,WUHU216HW,2013-01-25 22:23:00,
2013-01-25 15:28:00,65.0,39.3,30.14,South,180,3.1,3.4,39,0.00,,,0.00,WUHU216HW,2013-01-25 22:28:00,
2013-01-25 15:33:00,65.0,39.3,30.14,East,90,0.9,3.4,39,0.00,,,0.00,WUHU216HW,2013-01-25 22:33:00,
2013-01-25 15:38:00,64.8,39.3,30.14,SE,135,0.7,2.5,39,0.00,,,0.00,WUHU216HW,2013-01-25 22:38:00,
2013-01-25 15:43:00,64.4,39.6,30.13,SE,135,2.0,2.5,40,0.00,,,0.00,WUHU216HW,2013-01-25 22:43:00,
2013-01-25 15:48:00,64.3,39.4,30.13,SE,135,1.8,2.5,40,0.00,,,0.00,WUHU216HW,2013-01-25 22:48:00,
2013-01-25 15:53:00,64.3,39.4,30.13,ESE,113,1.8,2.5,40,0.00,,,0.00,WUHU216HW,2013-01-25 22:53:00,
2013-01-25 15:58:00,64.1,39.2,30.13,SSE,158,2.2,2.5,40,0.00,,,0.00,WUHU216HW,2013-01-25 22:58:00,
2013-01-25 16:03:00,64.1,39.2,30.12,South,180,1.6,2.2,40,0.00,,,0.00,WUHU216HW,2013-01-25 23:03:00,
2013-01-25 16:08:00,64.1,39.2,30.12,SE,135,1.6,2.2,40,0.00,,,0.00,WUHU216HW,2013-01-25 23:08:00,
2013-01-25 16:13:00,64.1,39.2,30.12,SE,135,0.4,1.8,40,0.00,,,0.00,WUHU216HW,2013-01-25 23:13:00,
2013-01-25 16:18:00,63.9,39.2,30.12,WSW,248,0.9,1.8,40,0.00,,,0.00,WUHU216HW,2013-01-25 23:18:00,
2013-01-25 16:23:00,63.9,39.7,30.12,South,180,0.4,1.8,41,0.00,,,0.00,WUHU216HW,2013-01-25 23:23:00,
2013-01-25 16:28:00,63.7,39.5,30.12,SE,135,0.0,1.8,41,0.00,,,0.00,WUHU216HW,2013-01-25 23:28:00,
2013-01-25 16:33:00,63.9,39.7,30.12,SE,135,0.2,2.7,41,0.00,,,0.00,WUHU216HW,2013-01-25 23:33:00,
2013-01-25 16:38:00,64.1,39.2,30.12,SE,135,0.0,2.7,40,0.00,,,0.00,WUHU216HW,2013-01-25 23:38:00,
2013-01-25 16:43:00,63.9,39.2,30.13,SW,225,0.4,1.1,40,0.00,,,0.00,WUHU216HW,2013-01-25 23:43:00,
2013-01-25 16:48:00,63.5,39.3,30.13,SE,135,0.4,2.9,41,0.00,,,0.00,WUHU216HW,2013-01-25 23:48:00,
2013-01-25 16:53:00,63.2,39.1,30.13,SE,135,0.7,2.9,41,0.00,,,0.00,WUHU216HW,2013-01-25 23:53:00,
2013-01-25 16:58:00,62.6,38.5,30.13,ESE,113,0.4,1.3,41,0.00,,,0.00,WUHU216HW,2013-01-25 23:58:00,
2013-01-25 17:03:00,62.3,38.8,30.13,SE,135,0.2,1.3,42,0.00,,,0.00,WUHU216HW,2013-01-26 00:03:00,
2013-01-25 17:08:00,61.9,38.5,30.13,SE,135,0.4,1.1,42,0.00,,,0.00,WUHU216HW,2013-01-26 00:08:00,
2013-01-25 17:13:00,61.6,38.7,30.12,SE,135,0.4,1.1,43,0.00,,,0.00,WUHU216HW,2013-01-26 00:13:00,
2013-01-25 17:18:00,61.2,38.4,30.13,SE,135,0.0,1.1,43,0.00,,,0.00,WUHU216HW,2013-01-26 00:18:00,
2013-01-25 17:23:00,60.8,38.1,30.13,SE,135,0.0,0.4,43,0.00,,,0.00,WUHU216HW,2013-01-26 00:23:00,
2013-01-25 17:28:00,60.5,37.8,30.13,SE,135,0.0,0.2,43,0.00,,,0.00,WUHU216HW,2013-01-26 00:28:00,
2013-01-25 17:33:00,60.1,38.0,30.13,SE,135,0.0,0.0,44,0.00,,,0.00,WUHU216HW,2013-01-26 00:33:00,
2013-01-25 17:38:00,59.8,37.7,30.13,SE,135,0.0,0.0,44,0.00,,,0.00,WUHU216HW,2013-01-26 00:38:00,
2013-01-25 17:43:00,59.4,38.0,30.13,SE,135,0.0,0.0,45,0.00,,,0.00,WUHU216HW,2013-01-26 00:43:00,
2013-01-25 17:48:00,59.2,37.8,30.13,SE,135,0.0,0.0,45,0.00,,,0.00,WUHU216HW,2013-01-26 00:48:00,
2013-01-25 17:53:00,58.9,37.4,30.13,SE,135,0.0,0.0,45,0.00,,,0.00,WUHU216HW,2013-01-26 00:53:00,
2013-01-25 17:58:00,58.5,37.7,30.13,SE,135,0.0,0.0,46,0.00,,,0.00,WUHU216HW,2013-01-26 00:58:00,
2013-01-25 18:03:00,58.1,37.4,30.13,SSE,158,0.2,0.9,46,0.00,,,0.00,WUHU216HW,2013-01-26 01:03:00,
2013-01-25 18:08:00,58.0,37.8,30.13,SSE,158,0.0,0.9,47,0.00,,,0.00,WUHU216HW,2013-01-26 01:08:00,
2013-01-25 18:13:00,57.6,37.4,30.13,SSE,158,0.0,0.2,47,0.00,,,0.00,WUHU216HW,2013-01-26 01:13:00,
2013-01-25 18:18:00,57.2,37.7,30.13,SSE,158,0.0,0.0,48,0.00,,,0.00,WUHU216HW,2013-01-26 01:18:00,
2013-01-25 18:23:00,57.1,37.5,30.13,SSE,158,0.0,0.0,48,0.00,,,0.00,WUHU216HW,2013-01-26 01:23:00,
2013-01-25 18:28:00,56.7,37.2,30.13,SSE,158,0.0,0.0,48,0.00,,,0.00,WUHU216HW,2013-01-26 01:28:00,
2013-01-25 18:33:00,56.5,37.6,30.13,SSE,158,0.0,0.0,49,0.00,,,0.00,WUHU216HW,2013-01-26 01:33:00,
2013-01-25 18:38:00,56.3,37.5,30.13,SSE,158,0.0,0.0,49,0.00,,,0.00,WUHU216HW,2013-01-26 01:38:00,
2013-01-25 18:43:00,56.0,37.6,30.13,SSE,158,0.0,0.0,50,0.00,,,0.00,WUHU216HW,2013-01-26 01:43:00,
2013-01-25 18:48:00,55.8,37.4,30.13,SSE,158,0.0,0.0,50,0.00,,,0.00,WUHU216HW,2013-01-26 01:48:00,
2013-01-25 18:53:00,55.6,37.3,30.13,South,180,0.0,0.0,50,0.00,,,0.00,WUHU216HW,2013-01-26 01:53:00,
2013-01-25 18:58:00,55.4,37.1,30.13,South,180,0.0,0.0,50,0.00,,,0.00,WUHU216HW,2013-01-26 01:58:00,
2013-01-25 19:03:00,55.1,36.7,30.13,South,180,0.0,0.0,50,0.00,,,0.00,WUHU216HW,2013-01-26 02:03:00,
2013-01-25 19:08:00,54.9,36.6,30.12,South,180,0.0,0.0,50,0.00,,,0.00,WUHU216HW,2013-01-26 02:08:00,
2013-01-25 19:13:00,54.7,36.9,30.13,South,180,0.0,0.0,51,0.00,,,0.00,WUHU216HW,2013-01-26 02:13:00,
2013-01-25 19:18:00,54.4,36.5,30.13,South,180,0.0,0.0,51,0.00,,,0.00,WUHU216HW,2013-01-26 02:18:00,
2013-01-25 19:23:00,54.2,36.5,30.13,South,180,0.0,0.0,51,0.00,,,0.00,WUHU216HW,2013-01-26 02:23:00,
2013-01-25 19:28:00,54.0,36.7,30.13,SSE,158,0.0,0.2,52,0.00,,,0.00,WUHU216HW,2013-01-26 02:28:00,
2013-01-25 19:33:00,53.8,36.5,30.13,SSE,158,0.0,0.2,52,0.00,,,0.00,WUHU216HW,2013-01-26 02:33:00,
2013-01-25 19:38:00,53.6,36.9,30.13,SE,135,0.2,0.9,53,0.00,,,0.00,WUHU216HW,2013-01-26 02:38:00,
2013-01-25 19:43:00,53.6,36.9,30.13,SE,135,0.0,0.9,53,0.00,,,0.00,WUHU216HW,2013-01-26 02:43:00,
2013-01-25 19:48:00,53.6,36.9,30.13,SE,135,0.0,0.4,53,0.00,,,0.00,WUHU216HW,2013-01-26 02:48:00,
2013-01-25 19:53:00,53.5,36.7,30.13,SSE,158,0.7,0.9,53,0.00,,,0.00,WUHU216HW,2013-01-26 02:53:00,
2013-01-25 19:58:00,53.3,36.6,30.13,SSW,203,0.4,0.9,53,0.00,,,0.00,WUHU216HW,2013-01-26 02:58:00,
2013-01-25 20:03:00,53.1,36.4,30.14,SW,225,0.0,0.9,53,0.00,,,0.00,WUHU216HW,2013-01-26 03:03:00,
2013-01-25 20:08:00,53.1,36.8,30.14,SW,225,0.0,0.7,54,0.00,,,0.00,WUHU216HW,2013-01-26 03:08:00,
2013-01-25 20:13:00,53.1,36.8,30.14,SW,225,0.0,0.2,54,0.00,,,0.00,WUHU216HW,2013-01-26 03:13:00,
2013-01-25 20:18:00,53.1,36.8,30.13,SW,225,0.9,0.9,54,0.00,,,0.00,WUHU216HW,2013-01-26 03:18:00,
2013-01-25 20:23:00,53.1,36.8,30.14,SSW,203,0.9,1.3,54,0.00,,,0.00,WUHU216HW,2013-01-26 03:23:00,
2013-01-25 20:28:00,53.3,37.0,30.14,SW,225,0.4,1.3,54,0.00,,,0.00,WUHU216HW,2013-01-26 03:28:00,
2013-01-25 20:33:00,53.5,37.6,30.14,WSW,248,1.6,1.6,55,0.00,,,0.00,WUHU216HW,2013-01-26 03:33:00,
2013-01-25 20:38:00,53.6,37.8,30.14,WSW,248,0.7,1.6,55,0.00,,,0.00,WUHU216HW,2013-01-26 03:38:00,
2013-01-25 20:43:00,53.6,37.8,30.14,SW,225,0.0,1.6,55,0.00,,,0.00,WUHU216HW,2013-01-26 03:43:00,
2013-01-25 20:48:00,53.8,38.0,30.14,SSW,203,0.0,1.1,55,0.00,,,0.00,WUHU216HW,2013-01-26 03:48:00,
2013-01-25 20:53:00,54.0,38.2,30.14,SSW,203,0.0,0.4,55,0.00,,,0.00,WUHU216HW,2013-01-26 03:53:00,
2013-01-25 20:58:00,54.0,37.6,30.14,SE,135,1.1,1.1,54,0.00,,,0.00,WUHU216HW,2013-01-26 03:58:00,
2013-01-25 21:03:00,54.0,37.6,30.14,SE,135,0.7,1.1,54,0.00,,,0.00,WUHU216HW,2013-01-26 04:03:00,
2013-01-25 21:08:00,54.0,37.6,30.14,ESE,113,0.0,1.1,54,0.00,,,0.00,WUHU216HW,2013-01-26 04:08:00,
2013-01-25 21:13:00,53.8,37.5,30.14,ESE,113,0.0,0.7,54,0.00,,,0.00,WUHU216HW,2013-01-26 04:13:00,
2013-01-25 21:18:00,53.6,37.4,30.14,ESE,113,0.0,0.7,54,0.00,,,0.00,WUHU216HW,2013-01-26 04:18:00,
2013-01-25 21:23:00,53.5,37.2,30.13,ESE,113,0.0,0.0,54,0.00,,,0.00,WUHU216HW,2013-01-26 04:23:00,
2013-01-25 21:28:00,53.3,37.0,30.13,ESE,113,0.0,0.0,54,0.00,,,0.00,WUHU216HW,2013-01-26 04:28:00,
2013-01-25 21:33:00,53.1,37.3,30.14,East,90,0.4,1.1,55,0.00,,,0.00,WUHU216HW,2013-01-26 04:33:00,
2013-01-25 21:38:00,52.9,37.1,30.14,ESE,113,0.2,1.1,55,0.00,,,0.00,WUHU216HW,2013-01-26 04:38:00,
2013-01-25 21:43:00,52.9,37.1,30.13,East,90,0.0,0.7,55,0.00,,,0.00,WUHU216HW,2013-01-26 04:43:00,
2013-01-25 21:48:00,52.7,37.5,30.13,East,90,0.0,0.7,56,0.00,,,0.00,WUHU216HW,2013-01-26 04:48:00,
2013-01-25 21:53:00,52.7,37.5,30.13,East,90,0.7,0.7,56,0.00,,,0.00,WUHU216HW,2013-01-26 04:53:00,
2013-01-25 21:58:00,52.7,37.5,30.14,East,90,0.0,0.9,56,0.00,,,0.00,WUHU216HW,2013-01-26 04:58:00,
2013-01-25 22:00:00,52.7,37.5,30.14,East,90,0.0,0.9,56,0.00,,,0.00,WUHU216HW,2013-01-26 05:00:00,
2013-01-25 22:01:00,52.7,37.5,30.14,East,90,0.0,0.9,56,0.00,,,0.00,WUHU216HW,2013-01-26 05:01:00,
2013-01-25 22:06:00,52.7,37.9,30.14,East,90,0.4,0.4,57,0.00,,,0.00,WUHU216HW,2013-01-26 05:06:00,
2013-01-25 22:11:00,52.6,37.7,30.14,East,90,0.0,0.9,57,0.00,,,0.00,WUHU216HW,2013-01-26 05:11:00,
2013-01-25 22:16:00,52.6,37.7,30.14,East,90,0.0,0.9,57,0.00,,,0.00,WUHU216HW,2013-01-26 05:16:00,
2013-01-25 22:21:00,52.6,37.7,30.14,ENE,68,1.3,1.3,57,0.00,,,0.00,WUHU216HW,2013-01-26 05:21:00,
2013-01-25 22:26:00,52.4,37.5,30.14,ENE,68,0.0,1.3,57,0.00,,,0.00,WUHU216HW,2013-01-26 05:26:00,
2013-01-25 22:31:00,52.4,37.5,30.14,ESE,113,0.9,1.3,57,0.00,,,0.00,WUHU216HW,2013-01-26 05:31:00,
2013-01-25 22:36:00,52.4,38.0,30.14,ESE,113,0.0,0.9,58,0.00,,,0.00,WUHU216HW,2013-01-26 05:36:00,
2013-01-25 22:41:00,52.4,37.5,30.14,SW,225,0.0,0.9,57,0.00,,,0.00,WUHU216HW,2013-01-26 05:41:00,
2013-01-25 22:46:00,52.4,38.0,30.14,WSW,248,1.1,1.6,58,0.00,,,0.00,WUHU216HW,2013-01-26 05:46:00,
2013-01-25 22:51:00,52.4,38.4,30.14,West,270,1.1,3.1,59,0.00,,,0.00,WUHU216HW,2013-01-26 05:51:00,
2013-01-25 22:56:00,52.6,38.6,30.14,NW,315,0.9,3.1,59,0.00,,,0.00,WUHU216HW,2013-01-26 05:56:00,
2013-01-25 23:01:00,52.6,38.6,30.13,North,0,0.0,2.0,59,0.00,,,0.00,WUHU216HW,2013-01-26 06:01:00,
2013-01-25 23:06:00,52.6,38.2,30.13,North,0,0.0,0.9,58,0.00,,,0.00,WUHU216HW,2013-01-26 06:06:00,
2013-01-25 23:11:00,52.4,38.0,30.14,North,0,0.0,0.4,58,0.00,,,0.00,WUHU216HW,2013-01-26 06:11:00,
2013-01-25 23:16:00,52.4,38.0,30.13,NW,315,0.0,0.0,58,0.00,,,0.00,WUHU216HW,2013-01-26 06:16:00,
2013-01-25 23:21:00,52.2,37.8,30.13,NNW,338,0.0,0.0,58,0.00,,,0.00,WUHU216HW,2013-01-26 06:21:00,
2013-01-25 23:26:00,52.0,37.6,30.13,NNW,338,0.0,0.0,58,0.00,,,0.00,WUHU216HW,2013-01-26 06:26:00,
2013-01-25 23:31:00,52.0,38.1,30.13,NNE,23,0.0,0.9,59,0.00,,,0.00,WUHU216HW,2013-01-26 06:31:00,
2013-01-25 23:36:00,51.8,37.9,30.13,NNE,23,0.0,0.9,59,0.00,,,0.00,WUHU216HW,2013-01-26 06:36:00,
2013-01-25 23:41:00,51.7,37.7,30.13,NE,45,0.2,0.2,59,0.00,,,0.00,WUHU216HW,2013-01-26 06:41:00,
2013-01-25 23:46:00,51.7,37.7,30.13,East,90,0.0,0.4,59,0.00,,,0.00,WUHU216HW,2013-01-26 06:46:00,
2013-01-25 23:51:00,51.7,37.7,30.13,WSW,248,0.0,1.1,59,0.00,,,0.00,WUHU216HW,2013-01-26 06:51:00,
2013-01-25 23:56:00,51.7,37.7,30.13,WSW,248,0.0,1.1,59,0.00,,,0.00,WUHU216HW,2013-01-26 06:56:00,